RH
60 62 69 73 84 87 94 94 99 99 94 92 86 81 87 94 92 86 78 63 46 56 62 72 77 82 80 91 81 79 82 86 83 82 88 95 98 92
71 69 70 78 64 60 78 88 89 85 98 86 67 62 83 92 90 88 92 88 87 66 67 65 82 89 73 99 81 83 81 84 84 79 89 99 98 97
81 82 78 67 65 64 82 95 99 100 100 94 82 85 92 84 87 97 91 90 96 77 86 79 90 94 88 93 83 83 88 87 87 87 95 100 100 100
76 72 62 63 61 68 68 99 100 99 99 94 97 95 83 86 94 96 100 100 95 84 83 94 98 98 89 96 90 91 90 88 94 94 88 89 99 100
73 72 66 71 88 88 74 92 100 92 98 100 99 94 86 100 100 90 94 94 95 91 94 100 100 100 96 100 95 89 88 91 90 94 91 93 98 96
66 79 79 76 74 95 100 99 99 98 100 100 100 89 99 99 96 91 96 98 99 100 100 100 100 100 100 99 94 92 94 93 88 79 72 70 66 79
70 70 70 69 76 80 99 99 92 100 98 100 99 99 100 99 94 96 100 100 100 100 100 100 100 99 98 97 99 93 85 70 65 64 61 60 64 81
70 65 65 67 79 89 96 98 95 95 100 99 99 99 100 99 100 100 100 100 100 99 100 100 100 99 99 98 85 69 58 55 56 57 55 58 75 99
98 98 99 98 96 98 96 100 100 100 100 100 99 99 100 100 100 100 100 100 100 100 100 100 99 98 89 78 71 69 68 66 64 62 60 65 79 84
100 100 99 99 100 100 100 100 100 100 100 100 100 100 100 100 100 100 100 100 100 100 99 97 90 87 88 86 80 77 75 74 71 70 68 70 76 78
100 100 98 100 100 100 100 100 98 99 100 100 100 100 100 100 100 100 100 100 98 96 97 98 91 86 82 78 77 77 80 82 84 83 84 85 87 86
99 100 100 100 100 100 100 100 100 100 100 100 100 99 96 93 90 89 89 94 100 98 94 92 96 88 75 76 72 81 86 95 98 95 93 89 84 86
100 100 98 98 99 100 99 98 92 96 92 85 73 67 64 57 55 52 55 53 77 98 98 95 87 94 98 92 82 73 77 93 98 92 85 97 84 84
53 57 58 61 66 62 58 54 49 46 44 38 35 31 29 26 25 27 29 29 30 44 72 86 98 96 99 96 90 65 76 86 92 82 80 93 90 87
35 32 29 27 24 22 20 20 20 18 19 18 16 18 21 26 24 25 24 25 28 44 54 66 80 99 99 98 98 92 85 76 79 81 82 84 99 100
26 24 23 21 20 18 19 18 18 18 18 18 19 20 20 19 19 18 18 20 27 48 57 67 81 87 82 95 99 96 94 98 96 90 98 93 95 99
28 26 24 20 17 15 14 15 15 15 15 15 16 18 18 17 16 18 19 17 17 18 27 51 62 79 98 99 98 93 93 90 94 97 94 97 100 99
29 24 20 21 22 21 18 16 15 14 15 16 17 17 17 18 19 21 24 28 38 46 54 78 92 98 100 91 95 89 82 79 88 90 88 97 98 99
24 22 24 22 18 13 11 11 12 13 14 14 14 14 15 16 18 25 32 53 86 97 99 100 100 100 100 98 93 86 83 82 88 90 89 95 100 94
29 27 25 19 14 13 14 15 16 17 19 20 21 23 25 26 28 35 43 58 76 88 94 96 97 100 95 94 96 86 96 100 94 88 95 90 98 100
32 29 23 18 18 19 20 23 26 27 26 28 30 32 36 38 42 49 60 89 100 98 96 93 94 96 95 93 96 93 77 86 95 96 98 100 100 100
34 29 21 20 21 24 26 27 26 27 28 29 32 38 46 55 60 63 65 70 70 80 97 91 92 95 94 94 94 91 83 91 99 97 99 100 100 100
34 25 22 24 25 26 23 22 23 26 29 32 37 42 47 49 53 56 59 67 72 84 86 91 88 92 86 94 95 91 91 94 100 99 97 100 100 100
Wind_Speed
43 43 41 40 42 47 37 33 33 21 27 27 28 34 38 38 36 36 32 33 33 30 33 32 31 33 31 32 28 27 27 29 28 29 31 30 30 29
38 36 37 35 35 43 39 39 42 39 35 35 40 41 38 33 30 27 31 35 38 38 33 34 32 36 35 30 31 30 31 31 33 33 30 30 32 30
34 34 33 32 34 32 34 38 40 39 43 42 37 34 40 37 40 35 37 37 35 37 36 43 37 40 36 29 31 33 33 34 32 31 29 28 31 31
35 34 34 33 33 34 33 38 39 37 44 39 40 41 40 40 36 37 39 34 34 39 38 38 39 35 33 29 31 34 32 33 29 28 30 29 29 31
30 31 31 30 32 33 34 34 36 35 42 40 42 36 39 36 35 29 28 29 32 33 31 36 35 27 25 29 31 32 27 28 28 28 28 28 29 29
26 29 30 29 31 32 34 36 34 35 36 39 37 33 41 37 31 25 28 29 29 30 27 27 26 26 27 29 28 26 26 26 25 26 25 25 24 26
30 32 34 32 31 29 32 35 34 40 35 37 35 36 40 33 28 28 27 27 24 26 24 23 24 26 25 24 24 23 22 22 21 22 21 21 21 21
33 36 35 31 30 28 28 30 31 37 40 43 38 38 38 29 34 29 25 25 23 23 19 19 18 20 21 21 19 18 18 17 18 18 18 18 17 18
27 28 27 30 27 28 27 31 33 37 40 41 39 31 32 29 22 21 20 20 19 16 16 17 17 16 15 16 15 15 15 16 17 17 17 15 16 16
19 20 23 26 29 29 32 34 29 23 24 23 24 24 16 15 14 14 16 16 15 14 15 13 15 13 14 16 17 18 17 17 16 16 16 16 18 17
9 8 4 7 15 25 24 26 21 20 17 17 16 14 14 14 13 13 12 12 12 12 12 12 14 14 15 17 18 18 17 18 17 16 15 14 15 15
17 17 17 19 16 16 15 15 17 15 11 10 10 9 9 8 10 10 9 9 10 8 13 14 16 11 5 9 11 12 12 10 10 12 15 17 17 20
10 11 10 9 9 8 8 8 6 6 4 3 4 4 4 4 4 5 6 8 9 9 10 10 11 11 10 14 18 20 18 21 22 21 20 19 20 22
7 7 7 6 3 4 5 5 6 5 4 4 3 2 2 2 4 4 5 6 7 10 13 13 15 15 14 19 22 20 18 20 22 21 19 21 24 24
5 6 6 6 6 6 7 6 5 4 4 4 3 3 3 3 3 4 6 7 7 8 9 11 13 14 16 19 23 23 23 22 23 22 19 23 24 21
4 5 5 5 5 6 6 6 5 5 3 3 2 0 2 4 5 6 7 9 9 10 12 12 14 17 19 19 20 24 23 20 19 19 20 22 24 21
5 5 5 5 4 4 4 3 2 1 1 1 2 4 6 7 8 9 11 12 13 14 13 15 17 19 19 21 22 21 21 23 23 20 23 26 25 25
4 4 4 3 2 2 2 2 2 2 2 2 4 5 6 7 9 9 10 10 11 13 14 13 12 14 17 18 19 22 21 21 20 20 22 25 27 21
5 5 3 2 1 1 1 1 2 4 5 6 7 8 9 10 11 12 12 12 11 12 13 14 14 15 18 20 20 19 20 20 21 21 22 24 26 21
6 4 3 2 2 2 3 3 4 4 5 7 8 9 10 11 11 12 13 14 14 14 14 14 14 16 18 22 24 22 22 22 21 22 22 21 22 22
5 3 3 3 3 4 5 6 7 8 8 8 9 11 12 12 13 13 13 13 14 15 16 18 17 19 23 24 25 27 27 25 25 22 21 22 20 20
5 5 5 5 5 6 6 7 7 8 9 9 10 10 10 11 13 14 15 16 16 16 18 18 18 20 19 20 24 26 27 27 26 23 24 22 19 11
7 6 6 6 7 7 8 8 8 8 8 8 9 9 10 11 12 14 15 16 16 18 21 21 23 24 24 22 21 23 25 27 25 23 22 23 24 24
Wind_Direction
240 243 245 250 250 252 258 252 236 234 243 248 255 270 267 266 260 260 260 260 257 257 253 247 251 253 255 258 261 264 268 265 272 275 271 274 275 281
239 243 243 241 248 251 254 253 253 253 243 252 259 272 273 271 268 266 261 263 256 245 250 249 244 245 259 250 261 261 264 264 272 278 271 271 283 281
240 238 242 246 247 251 249 250 252 247 235 248 263 257 261 269 265 264 259 263 251 244 250 247 245 247 247 249 259 259 265 272 275 269 268 274 278 277
240 243 245 244 243 247 250 243 241 247 245 253 253 255 258 264 262 268 265 260 258 246 253 261 240 234 240 246 252 268 271 273 268 271 272 272 273 278
240 240 242 241 243 246 246 244 243 247 248 253 251 256 266 261 258 267 264 266 260 257 236 221 224 228 239 242 262 271 267 268 272 273 274 274 273 273
239 248 249 249 250 246 243 240 242 247 249 252 247 259 253 260 262 268 265 259 253 219 221 220 225 237 244 257 261 262 267 268 273 274 273 275 276 273
245 250 249 252 256 251 242 244 250 242 249 241 241 247 252 258 259 259 256 247 233 233 227 232 241 244 249 249 256 261 265 270 271 273 275 278 274 266
249 245 252 252 253 247 250 246 247 244 241 239 241 243 250 254 258 240 224 224 221 229 230 226 234 243 249 251 253 259 263 269 273 273 277 276 272 265
251 254 257 255 259 243 243 240 245 245 240 232 236 239 244 244 221 222 218 213 210 214 221 233 234 234 240 245 249 254 260 266 274 275 276 271 270 268
249 248 251 256 248 242 240 221 231 228 219 227 229 217 199 191 190 208 213 212 210 212 225 234 234 233 238 244 248 253 263 267 269 272 274 278 274 270
131 151 213 216 215 203 211 195 200 186 160 162 168 174 174 175 180 187 195 214 218 229 238 249 255 257 259 262 265 265 259 258 258 264 266 271 276 280
97 100 103 102 109 96 102 107 113 116 120 135 145 164 188 206 219 214 214 225 229 229 245 249 265 274 278 263 254 248 255 241 242 250 265 274 277 280
74 86 79 74 82 101 102 105 103 121 149 169 160 182 205 212 237 247 245 239 233 235 241 250 265 266 259 268 270 269 263 265 269 273 274 271 276 283
50 69 82 80 76 77 89 99 123 143 153 162 169 191 212 221 229 238 245 248 251 243 247 254 257 266 271 276 279 278 276 274 273 269 275 281 277 276
102 100 95 97 99 111 112 114 120 118 128 139 141 173 199 216 225 246 253 259 261 260 262 264 264 263 265 272 278 284 287 274 266 268 268 273 271 268
103 104 102 98 97 94 95 99 97 100 103 104 110 229 297 286 282 285 286 281 271 255 259 258 260 263 267 270 272 272 274 273 274 268 264 265 270 273
129 126 122 120 114 102 93 85 79 68 27 323 297 293 301 308 305 294 287 283 281 276 258 256 264 263 262 270 270 266 271 270 274 275 273 276 275 270
158 149 141 126 104 82 54 28 2 335 311 291 284 285 286 285 284 283 285 288 286 285 286 290 296 288 283 278 260 268 272 273 273 268 265 268 271 268
194 185 190 201 235 294 306 317 325 323 317 310 305 302 299 299 300 300 303 300 298 293 286 282 291 294 292 287 288 285 280 276 274 267 257 257 266 271
205 213 226 248 272 285 296 305 308 311 316 318 318 316 313 306 302 300 299 297 296 296 294 292 285 284 283 286 289 285 278 281 279 273 271 269 262 257
229 245 267 285 297 299 301 304 305 304 307 310 311 311 309 305 304 302 297 291 289 282 279 278 281 278 277 276 280 279 281 287 284 274 270 265 261 258
243 260 268 273 276 284 290 296 302 302 302 302 299 296 296 298 301 303 303 302 300 297 294 293 289 288 287 275 278 282 280 280 279 270 259 252 244 243
245 261 273 280 286 292 295 295 295 297 299 303 305 306 308 308 304 302 300 298 294 284 288 289 285 286 289 279 282 281 276 276 282 277 262 252 243 240